• In Uzbekistan
  • List of Countries
  • For 7 days
  • Water Temperature
  • Satellite Maps
  • Weather Map
  • Weather Widgets
  • user-avatar
    Login

    Hourly Weather Andora

    Today, 20 February, Monday

    Time Temperature Precipitation Wind Pressure Humidity
    00:00 -4°C° 0 mm 2 mps 627 mmHg 83%
    01:00 -4°C° 0 mm 2 mps 627 mmHg 84%
    02:00 -4°C° 0 mm 2 mps 627 mmHg 86%
    03:00 -4°C° 0 mm 2 mps 626 mmHg 87%
    04:00 -4°C° 0 mm 2 mps 626 mmHg 86%
    05:00 -5°C° 0 mm 2 mps 626 mmHg 86%
    06:00 -5°C° 0 mm 2 mps 626 mmHg 87%
    07:00 -3°C° 0 mm 2 mps 627 mmHg 80%
    08:00 -1°C° 0 mm 2 mps 628 mmHg 73%
    09:00 +3°C° 0 mm 1 mps 629 mmHg 66%
    10:00 +3°C° 0 mm 2 mps 629 mmHg 62%
    11:00 +5°C° 0 mm 2 mps 630 mmHg 59%
    12:00 +6°C° 0 mm 2 mps 630 mmHg 55%
    13:00 +6°C° 0 mm 2 mps 630 mmHg 56%
    14:00 +6°C° 0 mm 2 mps 630 mmHg 57%
    15:00 +6°C° 0 mm 2 mps 629 mmHg 59%
    16:00 +4°C° 0 mm 2 mps 628 mmHg 68%
    17:00 +1°C° 0 mm 2 mps 627 mmHg 78%
    18:00 -2°C° 0 mm 2 mps 626 mmHg 87%
    19:00 -3°C° 0 mm 2 mps 626 mmHg 86%
    20:00 -3°C° 0 mm 2 mps 626 mmHg 85%
    21:00 -3°C° 0 mm 2 mps 626 mmHg 83%
    22:00 -3°C° 0 mm 2 mps 627 mmHg 82%
    23:00 -4°C° 0 mm 2 mps 627 mmHg 80%

    Tomorrow, 21 February, Tuesday

    Time Temperature Precipitation Wind Pressure Humidity
    00:00 -4°C° 0 mm 2 mps 627 mmHg 78%
    01:00 -4°C° 0 mm 2 mps 626 mmHg 78%
    02:00 -4°C° 0 mm 2 mps 626 mmHg 77%
    03:00 -4°C° 0 mm 2 mps 626 mmHg 77%
    04:00 -4°C° 0 mm 2 mps 626 mmHg 78%
    05:00 -2°C° 0 mm 1 mps 626 mmHg 79%
    06:00 -2°C° 0 mm 1 mps 626 mmHg 80%
    07:00 0°C° 0 mm 1 mps 627 mmHg 75%
    08:00 +3°C° 0 mm 1 mps 628 mmHg 70%
    09:00 +5°C° 0 mm 1 mps 629 mmHg 65%
    10:00 +6°C° 0 mm 1 mps 629 mmHg 63%
    11:00 +8°C° 0 mm 1 mps 630 mmHg 61%
    12:00 +9°C° 0 mm 1 mps 630 mmHg 58%
    13:00 +9°C° 0 mm 1 mps 630 mmHg 60%
    14:00 +9°C° 0 mm 1 mps 629 mmHg 61%
    15:00 +9°C° 0 mm 1 mps 629 mmHg 63%
    16:00 +7°C° 0 mm 1 mps 628 mmHg 72%
    17:00 +4°C° 0 mm 1 mps 627 mmHg 82%
    18:00 +1°C° 0 mm 1 mps 626 mmHg 91%
    19:00 +1°C° 0 mm 1 mps 626 mmHg 92%
    20:00 +1°C° 0 mm 1 mps 626 mmHg 92%
    21:00 0°C° 0 mm 1 mps 625 mmHg 92%
    22:00 0°C° 0 mm 1 mps 625 mmHg 90%
    23:00 0°C° 0 mm 1 mps 625 mmHg 88%

    Day after tomorrow, 22 February, Wednesday

    Time Temperature Precipitation Wind Pressure Humidity
    00:00 0°C° 0 mm 1 mps 625 mmHg 86%
    01:00 -1°C° 0 mm 1 mps 625 mmHg 84%
    02:00 -1°C° 0 mm 1 mps 625 mmHg 83%
    03:00 -1°C° 0 mm 1 mps 624 mmHg 81%
    04:00 -1°C° 0 mm 1 mps 624 mmHg 80%
    05:00 -1°C° 0 mm 1 mps 624 mmHg 79%
    06:00 -2°C° 0 mm 1 mps 624 mmHg 78%
    07:00 +1°C° 0 mm 1 mps 625 mmHg 70%
    08:00 +3°C° 0 mm 0 mps 626 mmHg 62%
    09:00 +6°C° 0 mm 0 mps 628 mmHg 54%
    10:00 +8°C° 0 mm 1 mps 628 mmHg 51%
    11:00 +9°C° 0 mm 1 mps 628 mmHg 48%
    12:00 +11°C° 0 mm 1 mps 629 mmHg 46%
    13:00 +11°C° 0 mm 1 mps 628 mmHg 48%
    14:00 +10°C° 0 mm 1 mps 628 mmHg 51%
    15:00 +10°C° 0 mm 1 mps 627 mmHg 54%
    16:00 +7°C° 0 mm 1 mps 626 mmHg 66%
    17:00 +4°C° 0 mm 1 mps 624 mmHg 78%
    18:00 +1°C° 0 mm 1 mps 623 mmHg 89%
    19:00 -1°C° 0 mm 0 mps 623 mmHg 89%
    20:00 -1°C° 0 mm 0 mps 623 mmHg 89%
    21:00 -1°C° 0 mm 0 mps 623 mmHg 89%
    22:00 -1°C° 0 mm 0 mps 623 mmHg 89%
    23:00 0°C° 0 mm 1 mps 623 mmHg 88%

    23 February, Thursday

    Time Temperature Precipitation Wind Pressure Humidity
    00:00 0°C° 0 mm 1 mps 623 mmHg 88%
    01:00 0°C° 0 mm 1 mps 622 mmHg 86%
    02:00 0°C° 0 mm 1 mps 622 mmHg 83%
    03:00 0°C° 0 mm 1 mps 621 mmHg 81%
    04:00 0°C° 0 mm 1 mps 621 mmHg 74%
    05:00 0°C° 0 mm 1 mps 621 mmHg 68%
    06:00 0°C° 0 mm 1 mps 621 mmHg 62%
    07:00 +2°C° 0 mm 1 mps 622 mmHg 55%
    08:00 +5°C° 0 mm 1 mps 623 mmHg 47%
    09:00 +7°C° 0 mm 1 mps 624 mmHg 40%
    10:00 +9°C° 0 mm 1 mps 625 mmHg 40%
    11:00 +10°C° 0 mm 1 mps 625 mmHg 41%
    12:00 +10°C° 0 mm 2 mps 625 mmHg 41%
    13:00 +10°C° 0 mm 2 mps 625 mmHg 45%
    14:00 +10°C° 0 mm 2 mps 625 mmHg 48%
    15:00 +10°C° 0 mm 2 mps 624 mmHg 51%
    16:00 +8°C° 0 mm 1 mps 623 mmHg 64%
    17:00 +5°C° 0 mm 1 mps 622 mmHg 77%
    18:00 +2°C° 0 mm 1 mps 621 mmHg 90%
    19:00 +2°C° 0 mm 1 mps 621 mmHg 91%
    20:00 +2°C° 0 mm 1 mps 621 mmHg 91%
    21:00 +1°C° 0 mm 1 mps 622 mmHg 92%
    22:00 +1°C° 0 mm 1 mps 622 mmHg 92%
    23:00 +1°C° 0 mm 1 mps 622 mmHg 93%

    24 February, Friday

    Time Temperature Precipitation Wind Pressure Humidity
    00:00 +1°C° 0 mm 1 mps 622 mmHg 93%
    01:00 +1°C° 0 mm 1 mps 621 mmHg 93%
    02:00 +1°C° 0 mm 1 mps 621 mmHg 93%
    03:00 0°C° 0 mm 1 mps 621 mmHg 93%
    04:00 -2°C° 0 mm 2 mps 621 mmHg 93%
    05:00 -2°C° 0 mm 2 mps 621 mmHg 92%
    06:00 -2°C° 0 mm 2 mps 621 mmHg 92%
    07:00 +1°C° 0 mm 2 mps 622 mmHg 86%
    08:00 +2°C° 0 mm 2 mps 623 mmHg 81%
    09:00 +4°C° 0 mm 2 mps 624 mmHg 75%
    10:00 +5°C° 0 mm 2 mps 624 mmHg 70%
    11:00 +5°C° 0 mm 3 mps 625 mmHg 64%
    12:00 +7°C° 0 mm 3 mps 625 mmHg 59%
    13:00 +7°C° 0 mm 3 mps 625 mmHg 60%
    14:00 +7°C° 0 mm 3 mps 624 mmHg 60%
    15:00 +7°C° 0 mm 3 mps 624 mmHg 61%
    16:00 +4°C° 0 mm 3 mps 624 mmHg 71%
    17:00 +2°C° 0 mm 3 mps 623 mmHg 81%
    18:00 +1°C° 0 mm 2 mps 623 mmHg 91%
    19:00 -1°C° 0 mm 2 mps 623 mmHg 90%
    20:00 -1°C° 0 mm 2 mps 624 mmHg 89%
    21:00 -1°C° 0 mm 2 mps 624 mmHg 89%
    22:00 -1°C° 0 mm 2 mps 624 mmHg 88%
    23:00 -1°C° 0 mm 2 mps 624 mmHg 88%

    25 February, Saturday

    Time Temperature Precipitation Wind Pressure Humidity
    00:00 -1°C° 0 mm 2 mps 624 mmHg 88%
    01:00 -2°C° 0 mm 2 mps 624 mmHg 87%
    02:00 -2°C° 0 mm 2 mps 624 mmHg 86%
    03:00 -2°C° 0 mm 2 mps 624 mmHg 86%
    04:00 -2°C° 0 mm 2 mps 624 mmHg 85%
    05:00 -3°C° 0 mm 2 mps 624 mmHg 84%
    06:00 -3°C° 0 mm 2 mps 624 mmHg 83%
    07:00 +2°C° 0 mm 1 mps 625 mmHg 75%
    08:00 +4°C° 0 mm 1 mps 627 mmHg 66%
    09:00 +6°C° 0 mm 1 mps 628 mmHg 57%
    10:00 +8°C° 0 mm 1 mps 628 mmHg 53%
    11:00 +10°C° 0 mm 1 mps 629 mmHg 48%
    12:00 +12°C° 0 mm 1 mps 629 mmHg 43%
    13:00 +12°C° 0 mm 1 mps 629 mmHg 45%
    14:00 +12°C° 0 mm 1 mps 628 mmHg 47%
    15:00 +12°C° 0 mm 1 mps 628 mmHg 49%
    16:00 +9°C° 0 mm 1 mps 627 mmHg 62%
    17:00 +5°C° 0 mm 1 mps 626 mmHg 75%
    18:00 +1°C° 0 mm 0 mps 624 mmHg 87%
    19:00 +1°C° 0 mm 0 mps 624 mmHg 87%
    20:00 +2°C° 0 mm 1 mps 625 mmHg 86%
    21:00 +2°C° 0 mm 1 mps 625 mmHg 85%
    22:00 +2°C° 0 mm 1 mps 625 mmHg 84%
    23:00 +1°C° 0 mm 1 mps 625 mmHg 83%
    Show more